Time,TemperatureF,DewpointF,PressureIn,WindDirection,WindDirectionDegrees,WindSpeedMPH,WindSpeedGustMPH,Humidity,HourlyPrecipIn,Conditions,Clouds,dailyrainin,SoftwareType,DateUTC
2013-07-13 00:02:00,52.3,35.8,30.21,South,180,0.0,2.0,53,0.00,,,0.00,meteohub,2013-07-13 07:02:00,
2013-07-13 00:07:00,52.2,35.1,30.21,South,180,1.0,2.0,52,0.00,,,0.00,meteohub,2013-07-13 07:07:00,
2013-07-13 00:12:00,52.3,35.2,30.20,South,180,1.0,1.0,52,0.00,,,0.00,meteohub,2013-07-13 07:12:00,
2013-07-13 00:17:00,52.2,35.1,30.21,South,180,2.0,2.0,52,0.00,,,0.00,meteohub,2013-07-13 07:17:00,
2013-07-13 00:22:00,52.2,35.1,30.20,South,180,0.0,2.0,52,0.00,,,0.00,meteohub,2013-07-13 07:22:00,
2013-07-13 00:27:00,52.0,34.9,30.20,South,180,1.0,2.0,52,0.00,,,0.00,meteohub,2013-07-13 07:27:00,
2013-07-13 00:32:00,51.8,34.7,30.20,South,180,1.0,2.0,52,0.00,,,0.00,meteohub,2013-07-13 07:32:00,
2013-07-13 00:37:00,51.6,34.5,30.20,South,180,1.0,2.0,52,0.00,,,0.00,meteohub,2013-07-13 07:37:00,
2013-07-13 00:42:00,51.8,34.7,30.20,South,180,0.0,1.0,52,0.00,,,0.00,meteohub,2013-07-13 07:42:00,
2013-07-13 00:47:00,51.8,34.7,30.20,South,180,0.0,1.0,52,0.00,,,0.00,meteohub,2013-07-13 07:47:00,
2013-07-13 00:52:00,51.8,34.7,30.20,South,180,1.0,1.0,52,0.00,,,0.00,meteohub,2013-07-13 07:52:00,
2013-07-13 00:57:00,51.8,34.7,30.21,South,180,1.0,1.0,52,0.00,,,0.00,meteohub,2013-07-13 07:57:00,
2013-07-13 01:02:00,51.8,35.2,30.20,South,180,1.0,1.0,53,0.00,,,0.00,meteohub,2013-07-13 08:02:00,
2013-07-13 01:07:00,51.6,36.0,30.21,South,180,0.0,1.0,55,0.00,,,0.00,meteohub,2013-07-13 08:07:00,
2013-07-13 01:12:00,51.3,35.6,30.20,South,180,2.0,2.0,55,0.00,,,0.00,meteohub,2013-07-13 08:12:00,
2013-07-13 01:17:00,51.1,35.4,30.20,South,180,0.0,2.0,55,0.00,,,0.00,meteohub,2013-07-13 08:17:00,
2013-07-13 01:22:00,51.1,35.4,30.20,South,180,0.0,2.0,55,0.00,,,0.00,meteohub,2013-07-13 08:22:00,
2013-07-13 01:27:00,50.9,35.8,30.20,South,180,0.0,2.0,56,0.00,,,0.00,meteohub,2013-07-13 08:27:00,
2013-07-13 01:32:00,50.7,35.6,30.21,South,180,0.0,1.0,56,0.00,,,0.00,meteohub,2013-07-13 08:32:00,
2013-07-13 01:37:00,50.5,35.4,30.20,South,180,0.0,0.0,56,0.00,,,0.00,meteohub,2013-07-13 08:37:00,
2013-07-13 01:42:00,50.4,35.8,30.20,South,180,0.0,1.0,57,0.00,,,0.00,meteohub,2013-07-13 08:42:00,
2013-07-13 01:47:00,50.4,36.1,30.20,South,180,1.0,1.0,58,0.00,,,0.00,meteohub,2013-07-13 08:47:00,
2013-07-13 01:52:00,50.2,36.0,30.20,South,180,0.0,1.0,58,0.00,,,0.00,meteohub,2013-07-13 08:52:00,
2013-07-13 01:57:00,50.2,36.3,30.20,South,180,0.0,1.0,59,0.00,,,0.00,meteohub,2013-07-13 08:57:00,
2013-07-13 02:02:00,50.2,36.3,30.20,South,180,0.0,1.0,59,0.00,,,0.00,meteohub,2013-07-13 09:02:00,
2013-07-13 02:07:00,50.4,36.5,30.20,South,180,0.0,0.0,59,0.00,,,0.00,meteohub,2013-07-13 09:07:00,
2013-07-13 02:12:00,50.2,36.3,30.20,South,180,0.0,0.0,59,0.00,,,0.00,meteohub,2013-07-13 09:12:00,
2013-07-13 02:17:00,50.2,36.9,30.19,South,180,0.0,0.0,60,0.00,,,0.00,meteohub,2013-07-13 09:17:00,
2013-07-13 02:22:00,50.0,37.0,30.20,South,180,0.0,1.0,61,0.00,,,0.00,meteohub,2013-07-13 09:22:00,
2013-07-13 02:27:00,50.0,37.0,30.20,South,180,0.0,1.0,61,0.00,,,0.00,meteohub,2013-07-13 09:27:00,
2013-07-13 02:32:00,50.0,37.6,30.20,South,180,0.0,1.0,62,0.00,,,0.00,meteohub,2013-07-13 09:32:00,
2013-07-13 02:37:00,50.0,37.6,30.20,South,180,1.0,1.0,62,0.00,,,0.00,meteohub,2013-07-13 09:37:00,
2013-07-13 02:42:00,50.0,37.9,30.20,South,180,1.0,1.0,63,0.00,,,0.00,meteohub,2013-07-13 09:42:00,
2013-07-13 02:47:00,50.0,37.9,30.20,South,180,0.0,2.0,63,0.00,,,0.00,meteohub,2013-07-13 09:47:00,
2013-07-13 02:52:00,50.0,37.9,30.19,South,180,0.0,2.0,63,0.00,,,0.00,meteohub,2013-07-13 09:52:00,
2013-07-13 02:57:00,49.8,38.1,30.19,South,180,0.0,2.0,64,0.00,,,0.00,meteohub,2013-07-13 09:57:00,
2013-07-13 03:02:00,49.8,38.1,30.20,South,180,0.0,2.0,64,0.00,,,0.00,meteohub,2013-07-13 10:02:00,
2013-07-13 03:07:00,49.8,38.1,30.19,South,180,0.0,0.0,64,0.00,,,0.00,meteohub,2013-07-13 10:07:00,
2013-07-13 03:12:00,49.8,38.5,30.19,South,180,0.0,0.0,65,0.00,,,0.00,meteohub,2013-07-13 10:12:00,
2013-07-13 03:17:00,49.6,38.3,30.19,South,180,0.0,0.0,65,0.00,,,0.00,meteohub,2013-07-13 10:17:00,
2013-07-13 03:22:00,49.6,38.7,30.19,South,180,0.0,0.0,66,0.00,,,0.00,meteohub,2013-07-13 10:22:00,
2013-07-13 03:28:00,49.5,38.7,30.19,South,180,1.0,0.0,66,0.00,,,0.00,meteohub,2013-07-13 10:28:00,
2013-07-13 03:33:00,49.1,38.7,30.19,South,180,0.0,2.0,67,0.00,,,0.00,meteohub,2013-07-13 10:33:00,
2013-07-13 03:38:00,48.7,38.7,30.19,South,180,1.0,2.0,68,0.00,,,0.00,meteohub,2013-07-13 10:38:00,
2013-07-13 03:43:00,48.7,39.0,30.19,South,180,1.0,2.0,69,0.00,,,0.00,meteohub,2013-07-13 10:43:00,
2013-07-13 03:48:00,48.7,39.0,30.19,South,180,0.0,2.0,69,0.00,,,0.00,meteohub,2013-07-13 10:48:00,
2013-07-13 03:53:00,48.7,39.4,30.19,South,180,2.0,2.0,70,0.00,,,0.00,meteohub,2013-07-13 10:53:00,
2013-07-13 03:58:00,48.9,39.6,30.19,South,180,0.0,2.0,70,0.00,,,0.00,meteohub,2013-07-13 10:58:00,
2013-07-13 04:03:00,48.9,39.6,30.19,South,180,0.0,2.0,70,0.00,,,0.00,meteohub,2013-07-13 11:03:00,
2013-07-13 04:08:00,49.1,39.7,30.20,South,180,0.0,2.0,70,0.00,,,0.00,meteohub,2013-07-13 11:08:00,
2013-07-13 04:13:00,49.1,39.7,30.19,South,180,0.0,1.0,70,0.00,,,0.00,meteohub,2013-07-13 11:13:00,
2013-07-13 04:18:00,48.9,39.9,30.19,South,180,0.0,1.0,71,0.00,,,0.00,meteohub,2013-07-13 11:18:00,
2013-07-13 04:23:00,48.7,39.7,30.19,South,180,0.0,1.0,71,0.00,,,0.00,meteohub,2013-07-13 11:23:00,
2013-07-13 04:28:00,48.7,40.1,30.19,South,180,2.0,0.0,72,0.00,,,0.00,meteohub,2013-07-13 11:28:00,
2013-07-13 04:33:00,48.7,40.5,30.19,South,180,0.0,2.0,73,0.00,,,0.00,meteohub,2013-07-13 11:33:00,
2013-07-13 04:38:00,48.7,40.5,30.20,South,180,0.0,2.0,73,0.00,,,0.00,meteohub,2013-07-13 11:38:00,
2013-07-13 04:43:00,48.7,40.8,30.19,South,180,2.0,2.0,74,0.00,,,0.00,meteohub,2013-07-13 11:43:00,
2013-07-13 04:48:00,48.4,40.8,30.19,South,180,1.0,2.0,75,0.00,,,0.00,meteohub,2013-07-13 11:48:00,
2013-07-13 04:53:00,48.4,41.2,30.20,South,180,0.0,2.0,76,0.00,,,0.00,meteohub,2013-07-13 11:53:00,
2013-07-13 04:58:00,48.4,41.2,30.20,South,180,0.0,2.0,76,0.00,,,0.00,meteohub,2013-07-13 11:58:00,
2013-07-13 05:03:00,48.4,41.2,30.20,South,180,0.0,1.0,76,0.00,,,0.00,meteohub,2013-07-13 12:03:00,
2013-07-13 05:08:00,48.4,41.5,30.20,South,180,0.0,1.0,77,0.00,,,0.00,meteohub,2013-07-13 12:08:00,
2013-07-13 05:13:00,48.6,42.1,30.20,South,180,2.0,2.0,78,0.00,,,0.00,meteohub,2013-07-13 12:13:00,
2013-07-13 05:18:00,48.6,42.1,30.20,South,180,1.0,2.0,78,0.00,,,0.00,meteohub,2013-07-13 12:18:00,
2013-07-13 05:23:00,48.7,42.4,30.20,South,180,0.0,2.0,79,0.00,,,0.00,meteohub,2013-07-13 12:23:00,
2013-07-13 05:28:00,48.7,42.4,30.20,South,180,0.0,2.0,79,0.00,,,0.00,meteohub,2013-07-13 12:28:00,
2013-07-13 05:33:00,48.7,42.4,30.20,South,180,0.0,1.0,79,0.00,,,0.00,meteohub,2013-07-13 12:33:00,
2013-07-13 05:38:00,48.6,42.3,30.21,South,180,0.0,1.0,79,0.00,,,0.00,meteohub,2013-07-13 12:38:00,
2013-07-13 05:43:00,48.6,42.6,30.20,South,180,0.0,1.0,80,0.00,,,0.00,meteohub,2013-07-13 12:43:00,
2013-07-13 05:48:00,48.6,42.6,30.21,South,180,2.0,2.0,80,0.00,,,0.00,meteohub,2013-07-13 12:48:00,
2013-07-13 05:53:00,48.4,42.4,30.21,South,180,2.0,2.0,80,0.00,,,0.00,meteohub,2013-07-13 12:53:00,
2013-07-13 05:58:00,48.4,42.8,30.21,South,180,1.0,2.0,81,0.00,,,0.00,meteohub,2013-07-13 12:58:00,
2013-07-13 06:03:00,48.6,43.0,30.21,South,180,1.0,2.0,81,0.00,,,0.00,meteohub,2013-07-13 13:03:00,
2013-07-13 06:08:00,48.7,43.5,30.20,South,180,0.0,2.0,82,0.00,,,0.00,meteohub,2013-07-13 13:08:00,
2013-07-13 06:13:00,48.7,43.5,30.21,South,180,0.0,2.0,82,0.00,,,0.00,meteohub,2013-07-13 13:13:00,
2013-07-13 06:18:00,48.7,43.5,30.21,South,180,0.0,2.0,82,0.00,,,0.00,meteohub,2013-07-13 13:18:00,
2013-07-13 06:23:00,49.1,43.9,30.21,South,180,2.0,2.0,82,0.00,,,0.00,meteohub,2013-07-13 13:23:00,
2013-07-13 06:28:00,49.8,44.8,30.21,South,180,2.0,2.0,83,0.00,,,0.00,meteohub,2013-07-13 13:28:00,
2013-07-13 06:33:00,50.5,45.3,30.21,South,180,2.0,2.0,82,0.00,,,0.00,meteohub,2013-07-13 13:33:00,
2013-07-13 06:38:00,51.3,45.7,30.21,South,180,2.0,2.0,81,0.00,,,0.00,meteohub,2013-07-13 13:38:00,
2013-07-13 06:43:00,52.2,46.2,30.21,South,180,2.0,2.0,80,0.00,,,0.00,meteohub,2013-07-13 13:43:00,
2013-07-13 06:48:00,53.1,46.8,30.21,South,180,2.0,2.0,79,0.00,,,0.00,meteohub,2013-07-13 13:48:00,
2013-07-13 06:53:00,54.0,47.3,30.21,South,180,1.0,2.0,78,0.00,,,0.00,meteohub,2013-07-13 13:53:00,
2013-07-13 06:58:00,55.0,47.7,30.21,South,180,2.0,2.0,76,0.00,,,0.00,meteohub,2013-07-13 13:58:00,
2013-07-13 07:03:00,55.8,48.4,30.21,South,180,1.0,2.0,76,0.00,,,0.00,meteohub,2013-07-13 14:03:00,
2013-07-13 07:08:00,56.7,48.4,30.21,South,180,0.0,2.0,74,0.00,,,0.00,meteohub,2013-07-13 14:08:00,
2013-07-13 07:13:00,57.4,48.7,30.22,South,180,0.0,2.0,73,0.00,,,0.00,meteohub,2013-07-13 14:13:00,
2013-07-13 07:18:00,58.8,49.8,30.21,South,180,1.0,2.0,72,0.00,,,0.00,meteohub,2013-07-13 14:18:00,
2013-07-13 07:23:00,59.9,50.2,30.21,South,180,1.0,2.0,70,0.00,,,0.00,meteohub,2013-07-13 14:23:00,
2013-07-13 07:28:00,60.6,50.0,30.22,South,180,1.0,2.0,68,0.00,,,0.00,meteohub,2013-07-13 14:28:00,
2013-07-13 07:33:00,61.7,51.1,30.22,South,180,1.0,2.0,68,0.00,,,0.00,meteohub,2013-07-13 14:33:00,
2013-07-13 07:38:00,62.6,51.1,30.22,South,180,2.0,2.0,66,0.00,,,0.00,meteohub,2013-07-13 14:38:00,
2013-07-13 07:43:00,63.3,51.4,30.22,South,180,0.0,2.0,65,0.00,,,0.00,meteohub,2013-07-13 14:43:00,
2013-07-13 07:48:00,63.9,51.4,30.22,South,180,0.0,2.0,64,0.00,,,0.00,meteohub,2013-07-13 14:48:00,
2013-07-13 07:53:00,64.6,51.3,30.22,South,180,1.0,2.0,62,0.00,,,0.00,meteohub,2013-07-13 14:53:00,
2013-07-13 07:58:00,65.3,51.1,30.22,South,180,0.0,2.0,60,0.00,,,0.00,meteohub,2013-07-13 14:58:00,
2013-07-13 08:03:00,66.2,50.9,30.22,South,180,1.0,1.0,58,0.00,,,0.00,meteohub,2013-07-13 15:03:00,
2013-07-13 08:08:00,66.9,51.3,30.22,South,180,2.0,2.0,57,0.00,,,0.00,meteohub,2013-07-13 15:08:00,
2013-07-13 08:13:00,67.6,50.9,30.22,South,180,2.0,2.0,55,0.00,,,0.00,meteohub,2013-07-13 15:13:00,
2013-07-13 08:18:00,68.5,50.2,30.23,South,180,2.0,3.0,52,0.00,,,0.00,meteohub,2013-07-13 15:18:00,
2013-07-13 08:24:00,69.6,50.2,30.22,East,90,4.0,4.0,50,0.00,,,0.00,meteohub,2013-07-13 15:24:00,
2013-07-13 08:29:00,70.9,49.6,30.23,North,0,4.0,4.0,47,0.00,,,0.00,meteohub,2013-07-13 15:29:00,
2013-07-13 08:34:00,71.1,48.6,30.23,North,0,2.0,5.0,45,0.00,,,0.00,meteohub,2013-07-13 15:34:00,
2013-07-13 08:39:00,71.4,47.8,30.23,East,90,4.0,5.0,43,0.00,,,0.00,meteohub,2013-07-13 15:39:00,
2013-07-13 08:44:00,71.8,46.8,30.23,NE,45,5.0,5.0,41,0.00,,,0.00,meteohub,2013-07-13 15:44:00,
2013-07-13 08:49:00,72.0,50.0,30.23,ENE,68,4.0,5.0,46,0.00,,,0.00,meteohub,2013-07-13 15:49:00,
2013-07-13 08:55:00,72.1,50.2,30.23,NE,45,5.0,6.0,46,0.00,,,0.00,meteohub,2013-07-13 15:55:00,
2013-07-13 09:00:00,72.7,50.2,30.22,East,90,4.0,6.0,45,0.00,,,0.00,meteohub,2013-07-13 16:00:00,
2013-07-13 09:05:00,73.4,50.2,30.23,East,90,8.0,8.0,44,0.00,,,0.00,meteohub,2013-07-13 16:05:00,
2013-07-13 09:10:00,73.4,49.5,30.22,NE,45,2.0,8.0,43,0.00,,,0.00,meteohub,2013-07-13 16:10:00,
2013-07-13 09:15:00,73.8,48.0,30.22,ENE,68,5.0,8.0,40,0.00,,,0.00,meteohub,2013-07-13 16:15:00,
2013-07-13 09:20:00,73.8,47.3,30.22,NE,45,5.0,8.0,39,0.00,,,0.00,meteohub,2013-07-13 16:20:00,
2013-07-13 09:25:00,73.4,46.2,30.23,East,90,6.0,8.0,38,0.00,,,0.00,meteohub,2013-07-13 16:25:00,
2013-07-13 09:30:00,72.0,45.7,30.23,NE,45,3.0,10.0,39,0.00,,,0.00,meteohub,2013-07-13 16:30:00,
2013-07-13 09:35:00,70.5,45.0,30.23,NE,45,4.0,10.0,40,0.00,,,0.00,meteohub,2013-07-13 16:35:00,
2013-07-13 09:40:00,70.0,44.6,30.23,North,0,4.0,9.0,40,0.00,,,0.00,meteohub,2013-07-13 16:40:00,
2013-07-13 09:45:00,69.6,43.5,30.23,North,0,3.0,9.0,39,0.00,,,0.00,meteohub,2013-07-13 16:45:00,
2013-07-13 09:50:00,69.6,45.0,30.23,North,0,2.0,9.0,41,0.00,,,0.00,meteohub,2013-07-13 16:50:00,
2013-07-13 09:57:00,69.6,45.5,30.23,West,270,2.0,7.0,42,0.00,,,0.00,meteohub,2013-07-13 16:57:00,
2013-07-13 10:02:00,69.6,46.2,30.23,North,0,5.0,6.0,43,0.00,,,0.00,meteohub,2013-07-13 17:02:00,
2013-07-13 10:07:00,69.3,44.6,30.24,North,0,6.0,6.0,41,0.00,,,0.00,meteohub,2013-07-13 17:07:00,
2013-07-13 10:12:00,69.1,45.7,30.23,NE,45,3.0,6.0,43,0.00,,,0.00,meteohub,2013-07-13 17:12:00,
2013-07-13 10:17:00,69.1,45.0,30.24,East,90,2.0,6.0,42,0.00,,,0.00,meteohub,2013-07-13 17:17:00,
2013-07-13 10:22:00,69.1,43.7,30.24,SE,135,2.0,6.0,40,0.00,,,0.00,meteohub,2013-07-13 17:22:00,
2013-07-13 10:27:00,68.9,43.5,30.23,North,0,4.0,4.0,40,0.00,,,0.00,meteohub,2013-07-13 17:27:00,
2013-07-13 10:32:00,68.7,44.1,30.24,NE,45,2.0,8.0,41,0.00,,,0.00,meteohub,2013-07-13 17:32:00,
2013-07-13 10:37:00,68.5,47.5,30.24,SE,135,2.0,8.0,47,0.00,,,0.00,meteohub,2013-07-13 17:37:00,
2013-07-13 10:42:00,68.0,46.9,30.24,North,0,3.0,8.0,47,0.00,,,0.00,meteohub,2013-07-13 17:42:00,
2013-07-13 10:47:00,67.3,45.1,30.24,North,0,1.0,4.0,45,0.00,,,0.00,meteohub,2013-07-13 17:47:00,
2013-07-13 10:52:00,66.7,44.1,30.25,North,0,1.0,4.0,44,0.00,,,0.00,meteohub,2013-07-13 17:52:00,
2013-07-13 10:57:00,66.7,44.8,30.25,North,0,2.0,4.0,45,0.00,,,0.00,meteohub,2013-07-13 17:57:00,
2013-07-13 11:02:00,66.9,45.0,30.25,North,0,2.0,3.0,45,0.00,,,0.00,meteohub,2013-07-13 18:02:00,
2013-07-13 11:07:00,68.0,44.1,30.25,North,0,3.0,7.0,42,0.00,,,0.00,meteohub,2013-07-13 18:07:00,
2013-07-13 11:12:00,68.5,43.3,30.25,East,90,5.0,8.0,40,0.00,,,0.00,meteohub,2013-07-13 18:12:00,
2013-07-13 11:17:00,68.9,43.5,30.25,ENE,68,6.0,8.0,40,0.00,,,0.00,meteohub,2013-07-13 18:17:00,
2013-07-13 11:22:00,70.0,43.9,30.25,NE,45,4.0,8.0,39,0.00,,,0.00,meteohub,2013-07-13 18:22:00,
2013-07-13 11:27:00,70.5,42.3,30.25,North,0,4.0,7.0,36,0.00,,,0.00,meteohub,2013-07-13 18:27:00,
2013-07-13 11:32:00,71.2,43.0,30.25,SE,135,2.0,7.0,36,0.00,,,0.00,meteohub,2013-07-13 18:32:00,
2013-07-13 11:37:00,71.2,41.4,30.25,North,0,4.0,9.0,34,0.00,,,0.00,meteohub,2013-07-13 18:37:00,
2013-07-13 11:42:00,71.6,41.7,30.24,NE,45,6.0,9.0,34,0.00,,,0.00,meteohub,2013-07-13 18:42:00,
2013-07-13 11:47:00,72.3,42.4,30.25,NE,45,5.0,9.0,34,0.00,,,0.00,meteohub,2013-07-13 18:47:00,
2013-07-13 11:52:00,73.0,42.3,30.24,South,180,4.0,8.0,33,0.00,,,0.00,meteohub,2013-07-13 18:52:00,
2013-07-13 11:57:00,74.3,42.6,30.24,West,270,2.0,6.0,32,0.00,,,0.00,meteohub,2013-07-13 18:57:00,
2013-07-13 12:02:00,74.5,43.5,30.25,NNE,23,4.0,6.0,33,0.00,,,0.00,meteohub,2013-07-13 19:02:00,
2013-07-13 12:07:00,73.8,42.1,30.24,North,0,8.0,8.0,32,0.00,,,0.00,meteohub,2013-07-13 19:07:00,
2013-07-13 12:12:00,73.8,42.8,30.24,SE,135,6.0,8.0,33,0.00,,,0.00,meteohub,2013-07-13 19:12:00,
2013-07-13 12:17:00,73.6,42.6,30.24,East,90,2.0,8.0,33,0.00,,,0.00,meteohub,2013-07-13 19:17:00,
2013-07-13 12:22:00,75.0,44.8,30.24,West,270,2.0,8.0,34,0.00,,,0.00,meteohub,2013-07-13 19:22:00,
2013-07-13 12:27:00,76.1,45.0,30.24,SE,135,4.0,8.0,33,0.00,,,0.00,meteohub,2013-07-13 19:27:00,
2013-07-13 12:32:00,76.5,45.1,30.24,East,90,5.0,7.0,33,0.00,,,0.00,meteohub,2013-07-13 19:32:00,
2013-07-13 12:37:00,76.6,45.3,30.24,NE,45,3.0,8.0,33,0.00,,,0.00,meteohub,2013-07-13 19:37:00,
2013-07-13 12:42:00,76.5,46.0,30.24,East,90,4.0,8.0,34,0.00,,,0.00,meteohub,2013-07-13 19:42:00,
2013-07-13 12:47:00,75.9,44.8,30.23,SE,135,8.0,8.0,33,0.00,,,0.00,meteohub,2013-07-13 19:47:00,
2013-07-13 12:52:00,75.2,45.0,30.23,SE,135,3.0,8.0,34,0.00,,,0.00,meteohub,2013-07-13 19:52:00,
2013-07-13 12:57:00,74.1,44.8,30.24,ENE,68,3.0,8.0,35,0.00,,,0.00,meteohub,2013-07-13 19:57:00,
2013-07-13 13:02:00,73.6,45.0,30.23,East,90,6.0,8.0,36,0.00,,,0.00,meteohub,2013-07-13 20:02:00,
2013-07-13 13:07:00,73.4,44.8,30.23,East,90,6.0,7.0,36,0.00,,,0.00,meteohub,2013-07-13 20:07:00,
2013-07-13 13:12:00,73.6,44.2,30.23,East,90,7.0,7.0,35,0.00,,,0.00,meteohub,2013-07-13 20:12:00,
2013-07-13 13:17:00,73.4,44.8,30.23,SE,135,4.0,7.0,36,0.00,,,0.00,meteohub,2013-07-13 20:17:00,
2013-07-13 13:22:00,73.8,45.1,30.23,East,90,2.0,7.0,36,0.00,,,0.00,meteohub,2013-07-13 20:22:00,
2013-07-13 13:27:00,73.8,44.4,30.23,East,90,4.0,7.0,35,0.00,,,0.00,meteohub,2013-07-13 20:27:00,
2013-07-13 13:32:00,73.2,44.6,30.23,East,90,3.0,6.0,36,0.00,,,0.00,meteohub,2013-07-13 20:32:00,
2013-07-13 13:37:00,72.9,45.7,30.24,East,90,6.0,6.0,38,0.00,,,0.00,meteohub,2013-07-13 20:37:00,
2013-07-13 13:42:00,72.3,44.6,30.23,North,0,7.0,7.0,37,0.00,,,0.00,meteohub,2013-07-13 20:42:00,
2013-07-13 13:47:00,73.0,45.9,30.23,NE,45,4.0,7.0,38,0.00,,,0.00,meteohub,2013-07-13 20:47:00,
2013-07-13 13:52:00,73.0,45.1,30.23,NE,45,3.0,7.0,37,0.00,,,0.00,meteohub,2013-07-13 20:52:00,
2013-07-13 13:57:00,73.2,45.3,30.23,NE,45,4.0,7.0,37,0.00,,,0.00,meteohub,2013-07-13 20:57:00,
2013-07-13 14:02:00,73.6,45.7,30.24,South,180,2.0,7.0,37,0.00,,,0.00,meteohub,2013-07-13 21:02:00,
2013-07-13 14:07:00,73.8,45.9,30.23,East,90,4.0,5.0,37,0.00,,,0.00,meteohub,2013-07-13 21:07:00,
2013-07-13 14:12:00,73.9,46.0,30.23,East,90,2.0,5.0,37,0.00,,,0.00,meteohub,2013-07-13 21:12:00,
2013-07-13 14:17:00,74.1,46.2,30.23,East,90,4.0,8.0,37,0.00,,,0.00,meteohub,2013-07-13 21:17:00,
2013-07-13 14:22:00,74.5,46.6,30.23,SSE,158,3.0,8.0,37,0.00,,,0.00,meteohub,2013-07-13 21:22:00,
2013-07-13 14:27:00,74.3,46.4,30.22,North,0,2.0,8.0,37,0.00,,,0.00,meteohub,2013-07-13 21:27:00,
2013-07-13 14:32:00,74.5,46.6,30.22,SE,135,2.0,6.0,37,0.00,,,0.00,meteohub,2013-07-13 21:32:00,
2013-07-13 14:37:00,74.7,46.6,30.22,NE,45,5.0,6.0,37,0.00,,,0.00,meteohub,2013-07-13 21:37:00,
2013-07-13 14:42:00,75.2,47.1,30.22,SE,135,7.0,7.0,37,0.00,,,0.00,meteohub,2013-07-13 21:42:00,
2013-07-13 14:47:00,75.4,46.6,30.22,East,90,3.0,7.0,36,0.00,,,0.00,meteohub,2013-07-13 21:47:00,
2013-07-13 14:52:00,75.0,46.2,30.22,East,90,2.0,7.0,36,0.00,,,0.00,meteohub,2013-07-13 21:52:00,
2013-07-13 14:57:00,75.2,47.1,30.22,SE,135,4.0,7.0,37,0.00,,,0.00,meteohub,2013-07-13 21:57:00,
2013-07-13 15:02:00,75.4,46.6,30.22,East,90,4.0,5.0,36,0.00,,,0.00,meteohub,2013-07-13 22:02:00,
2013-07-13 15:07:00,75.4,47.3,30.22,East,90,5.0,5.0,37,0.00,,,0.00,meteohub,2013-07-13 22:07:00,
2013-07-13 15:12:00,75.4,47.3,30.22,South,180,2.0,5.0,37,0.00,,,0.00,meteohub,2013-07-13 22:12:00,
2013-07-13 15:17:00,75.9,47.1,30.21,NE,45,2.0,5.0,36,0.00,,,0.00,meteohub,2013-07-13 22:17:00,
2013-07-13 15:22:00,75.6,46.8,30.21,SE,135,3.0,5.0,36,0.00,,,0.00,meteohub,2013-07-13 22:22:00,
2013-07-13 15:27:00,75.2,46.4,30.22,West,270,2.0,5.0,36,0.00,,,0.00,meteohub,2013-07-13 22:27:00,
2013-07-13 15:32:00,75.0,46.9,30.21,SE,135,2.0,5.0,37,0.00,,,0.00,meteohub,2013-07-13 22:32:00,
2013-07-13 15:37:00,75.6,47.5,30.21,East,90,5.0,8.0,37,0.00,,,0.00,meteohub,2013-07-13 22:37:00,
2013-07-13 15:42:00,75.9,47.8,30.21,East,90,6.0,8.0,37,0.00,,,0.00,meteohub,2013-07-13 22:42:00,
2013-07-13 15:47:00,77.0,48.0,30.20,SE,135,8.0,8.0,36,0.00,,,0.00,meteohub,2013-07-13 22:47:00,
2013-07-13 15:52:00,77.7,47.8,30.20,SE,135,6.0,8.0,35,0.00,,,0.00,meteohub,2013-07-13 22:52:00,
2013-07-13 15:57:00,78.1,48.2,30.20,NE,45,3.0,8.0,35,0.00,,,0.00,meteohub,2013-07-13 22:57:00,
2013-07-13 16:03:00,78.3,47.7,30.20,East,90,4.0,8.0,34,0.00,,,0.00,meteohub,2013-07-13 23:03:00,
2013-07-13 16:08:00,78.4,47.7,30.20,South,180,4.0,8.0,34,0.00,,,0.00,meteohub,2013-07-13 23:08:00,
2013-07-13 16:13:00,78.4,46.9,30.20,South,180,2.0,6.0,33,0.00,,,0.00,meteohub,2013-07-13 23:13:00,
2013-07-13 16:18:00,79.2,47.7,30.19,SW,225,3.0,7.0,33,0.00,,,0.00,meteohub,2013-07-13 23:18:00,
2013-07-13 16:23:00,80.2,46.9,30.20,West,270,3.0,7.0,31,0.00,,,0.00,meteohub,2013-07-13 23:23:00,
2013-07-13 16:28:00,80.8,47.3,30.20,South,180,3.0,7.0,31,0.00,,,0.00,meteohub,2013-07-13 23:28:00,
2013-07-13 16:33:00,80.8,46.4,30.19,North,0,7.0,7.0,30,0.00,,,0.00,meteohub,2013-07-13 23:33:00,
2013-07-13 16:38:00,79.9,46.6,30.19,NW,315,6.0,7.0,31,0.00,,,0.00,meteohub,2013-07-13 23:38:00,
2013-07-13 16:43:00,79.0,45.7,30.20,North,0,3.0,7.0,31,0.00,,,0.00,meteohub,2013-07-13 23:43:00,
2013-07-13 16:48:00,79.2,45.9,30.20,North,0,6.0,7.0,31,0.00,,,0.00,meteohub,2013-07-13 23:48:00,
2013-07-13 16:53:00,77.9,46.4,30.19,East,90,8.0,8.0,33,0.00,,,0.00,meteohub,2013-07-13 23:53:00,
2013-07-13 16:58:00,77.0,46.4,30.20,ENE,68,4.0,11.0,34,0.00,,,0.00,meteohub,2013-07-13 23:58:00,
2013-07-13 17:03:00,76.1,45.7,30.20,East,90,3.0,11.0,34,0.00,,,0.00,meteohub,2013-07-14 00:03:00,
2013-07-13 17:08:00,76.1,45.7,30.19,East,90,4.0,11.0,34,0.00,,,0.00,meteohub,2013-07-14 00:08:00,
2013-07-13 17:13:00,76.1,45.7,30.19,NE,45,6.0,6.0,34,0.00,,,0.00,meteohub,2013-07-14 00:13:00,
2013-07-13 17:18:00,75.9,46.2,30.19,SE,135,4.0,6.0,35,0.00,,,0.00,meteohub,2013-07-14 00:18:00,
2013-07-13 17:23:00,75.7,46.2,30.19,SE,135,2.0,6.0,35,0.00,,,0.00,meteohub,2013-07-14 00:23:00,
2013-07-13 17:28:00,75.4,45.9,30.19,SE,135,3.0,6.0,35,0.00,,,0.00,meteohub,2013-07-14 00:28:00,
2013-07-13 17:33:00,75.0,46.2,30.19,SE,135,2.0,4.0,36,0.00,,,0.00,meteohub,2013-07-14 00:33:00,
2013-07-13 17:38:00,75.0,46.9,30.19,South,180,2.0,4.0,37,0.00,,,0.00,meteohub,2013-07-14 00:38:00,
2013-07-13 17:43:00,75.4,47.3,30.19,East,90,4.0,4.0,37,0.00,,,0.00,meteohub,2013-07-14 00:43:00,
2013-07-13 17:48:00,75.0,46.9,30.19,East,90,2.0,4.0,37,0.00,,,0.00,meteohub,2013-07-14 00:48:00,
2013-07-13 17:53:00,74.5,46.6,30.19,South,180,4.0,4.0,37,0.00,,,0.00,meteohub,2013-07-14 00:53:00,
2013-07-13 17:58:00,74.1,44.8,30.19,North,0,2.0,4.0,35,0.00,,,0.00,meteohub,2013-07-14 00:58:00,
2013-07-13 18:03:00,74.1,44.8,30.19,SE,135,2.0,4.0,35,0.00,,,0.00,meteohub,2013-07-14 01:03:00,
2013-07-13 18:08:00,74.3,45.0,30.19,SE,135,0.0,4.0,35,0.00,,,0.00,meteohub,2013-07-14 01:08:00,
2013-07-13 18:13:00,74.7,45.1,30.19,South,180,2.0,4.0,35,0.00,,,0.00,meteohub,2013-07-14 01:13:00,
2013-07-13 18:18:00,75.0,46.2,30.19,South,180,2.0,3.0,36,0.00,,,0.00,meteohub,2013-07-14 01:18:00,
2013-07-13 18:23:00,75.6,46.8,30.19,NE,45,2.0,3.0,36,0.00,,,0.00,meteohub,2013-07-14 01:23:00,
2013-07-13 18:28:00,75.7,46.9,30.19,East,90,4.0,4.0,36,0.00,,,0.00,meteohub,2013-07-14 01:28:00,
2013-07-13 18:33:00,75.7,46.9,30.19,West,270,2.0,4.0,36,0.00,,,0.00,meteohub,2013-07-14 01:33:00,
2013-07-13 18:38:00,75.6,47.5,30.19,East,90,4.0,4.0,37,0.00,,,0.00,meteohub,2013-07-14 01:38:00,
2013-07-13 18:43:00,75.0,47.7,30.20,SE,135,3.0,4.0,38,0.00,,,0.00,meteohub,2013-07-14 01:43:00,
2013-07-13 18:48:00,74.7,47.3,30.19,NE,45,2.0,4.0,38,0.00,,,0.00,meteohub,2013-07-14 01:48:00,
2013-07-13 18:53:00,74.1,47.7,30.19,East,90,3.0,4.0,39,0.00,,,0.00,meteohub,2013-07-14 01:53:00,
2013-07-13 18:58:00,73.4,47.7,30.20,NE,45,5.0,5.0,40,0.00,,,0.00,meteohub,2013-07-14 01:58:00,
2013-07-13 19:03:00,72.9,47.1,30.20,East,90,2.0,6.0,40,0.00,,,0.00,meteohub,2013-07-14 02:03:00,
2013-07-13 19:08:00,72.1,46.4,30.20,East,90,2.0,6.0,40,0.00,,,0.00,meteohub,2013-07-14 02:08:00,
2013-07-13 19:13:00,72.1,46.4,30.20,SE,135,1.0,6.0,40,0.00,,,0.00,meteohub,2013-07-14 02:13:00,
2013-07-13 19:18:00,72.0,46.4,30.20,SE,135,2.0,4.0,40,0.00,,,0.00,meteohub,2013-07-14 02:18:00,
2013-07-13 19:23:00,72.0,46.4,30.20,South,180,2.0,3.0,40,0.00,,,0.00,meteohub,2013-07-14 02:23:00,
2013-07-13 19:28:00,71.2,45.7,30.21,East,90,2.0,2.0,40,0.00,,,0.00,meteohub,2013-07-14 02:28:00,
2013-07-13 19:33:00,70.5,45.7,30.20,East,90,2.0,4.0,41,0.00,,,0.00,meteohub,2013-07-14 02:33:00,
2013-07-13 19:38:00,69.8,45.7,30.20,East,90,1.0,4.0,42,0.00,,,0.00,meteohub,2013-07-14 02:38:00,
2013-07-13 19:43:00,69.1,45.0,30.20,East,90,2.0,4.0,42,0.00,,,0.00,meteohub,2013-07-14 02:43:00,
2013-07-13 19:48:00,68.7,45.3,30.21,East,90,2.0,3.0,43,0.00,,,0.00,meteohub,2013-07-14 02:48:00,
2013-07-13 19:53:00,68.5,45.1,30.20,East,90,1.0,2.0,43,0.00,,,0.00,meteohub,2013-07-14 02:53:00,
2013-07-13 19:58:00,68.2,44.8,30.21,East,90,1.0,2.0,43,0.00,,,0.00,meteohub,2013-07-14 02:58:00,
2013-07-13 20:03:00,68.0,44.6,30.21,East,90,0.0,2.0,43,0.00,,,0.00,meteohub,2013-07-14 03:03:00,
2013-07-13 20:08:00,67.6,45.0,30.21,East,90,1.0,2.0,44,0.00,,,0.00,meteohub,2013-07-14 03:08:00,
2013-07-13 20:13:00,67.3,44.6,30.21,East,90,0.0,2.0,44,0.00,,,0.00,meteohub,2013-07-14 03:13:00,
2013-07-13 20:18:00,66.7,44.8,30.21,East,90,2.0,2.0,45,0.00,,,0.00,meteohub,2013-07-14 03:18:00,
2013-07-13 20:23:00,66.6,44.6,30.21,East,90,1.0,2.0,45,0.00,,,0.00,meteohub,2013-07-14 03:23:00,
2013-07-13 20:28:00,65.7,44.2,30.21,East,90,1.0,2.0,46,0.00,,,0.00,meteohub,2013-07-14 03:28:00,
2013-07-13 20:33:00,64.9,44.2,30.21,East,90,0.0,2.0,47,0.00,,,0.00,meteohub,2013-07-14 03:33:00,
2013-07-13 20:38:00,64.6,43.9,30.21,East,90,0.0,2.0,47,0.00,,,0.00,meteohub,2013-07-14 03:38:00,
2013-07-13 20:43:00,64.2,44.1,30.21,East,90,2.0,2.0,48,0.00,,,0.00,meteohub,2013-07-14 03:43:00,
2013-07-13 20:48:00,63.9,43.7,30.21,East,90,2.0,2.0,48,0.00,,,0.00,meteohub,2013-07-14 03:48:00,
2013-07-13 20:53:00,63.7,43.7,30.21,East,90,2.0,2.0,48,0.00,,,0.00,meteohub,2013-07-14 03:53:00,
2013-07-13 20:58:00,63.7,43.7,30.21,East,90,0.0,2.0,48,0.00,,,0.00,meteohub,2013-07-14 03:58:00,
2013-07-13 21:01:00,63.5,43.5,30.22,East,90,0.0,2.0,48,0.00,,,0.00,meteohub,2013-07-14 04:01:00,
2013-07-13 21:06:00,63.3,43.9,30.22,East,90,1.0,2.0,49,0.00,,,0.00,meteohub,2013-07-14 04:06:00,
2013-07-13 21:11:00,63.0,43.5,30.22,East,90,0.0,2.0,49,0.00,,,0.00,meteohub,2013-07-14 04:11:00,
2013-07-13 21:16:00,62.8,43.3,30.22,East,90,0.0,1.0,49,0.00,,,0.00,meteohub,2013-07-14 04:16:00,
2013-07-13 21:21:00,62.6,43.7,30.22,East,90,2.0,2.0,50,0.00,,,0.00,meteohub,2013-07-14 04:21:00,
2013-07-13 21:26:00,62.6,43.2,30.23,East,90,2.0,2.0,49,0.00,,,0.00,meteohub,2013-07-14 04:26:00,
2013-07-13 21:31:00,62.6,43.7,30.23,East,90,1.0,2.0,50,0.00,,,0.00,meteohub,2013-07-14 04:31:00,
2013-07-13 21:36:00,61.9,43.5,30.23,East,90,2.0,2.0,51,0.00,,,0.00,meteohub,2013-07-14 04:36:00,
2013-07-13 21:41:00,61.3,43.5,30.23,East,90,1.0,2.0,52,0.00,,,0.00,meteohub,2013-07-14 04:41:00,
2013-07-13 21:46:00,61.3,43.5,30.23,East,90,1.0,2.0,52,0.00,,,0.00,meteohub,2013-07-14 04:46:00,
2013-07-13 21:51:00,61.5,43.7,30.24,East,90,2.0,2.0,52,0.00,,,0.00,meteohub,2013-07-14 04:51:00,
2013-07-13 21:56:00,61.5,43.2,30.24,East,90,2.0,2.0,51,0.00,,,0.00,meteohub,2013-07-14 04:56:00,
2013-07-13 22:01:00,61.5,43.2,30.23,East,90,2.0,2.0,51,0.00,,,0.00,meteohub,2013-07-14 05:01:00,
2013-07-13 22:06:00,61.2,43.3,30.24,East,90,2.0,2.0,52,0.00,,,0.00,meteohub,2013-07-14 05:06:00,
2013-07-13 22:11:00,61.0,43.2,30.23,East,90,2.0,2.0,52,0.00,,,0.00,meteohub,2013-07-14 05:11:00,
2013-07-13 22:16:00,60.4,43.2,30.23,East,90,1.0,2.0,53,0.00,,,0.00,meteohub,2013-07-14 05:16:00,
2013-07-13 22:21:00,60.1,43.3,30.23,East,90,2.0,2.0,54,0.00,,,0.00,meteohub,2013-07-14 05:21:00,
2013-07-13 22:26:00,59.9,42.8,30.24,East,90,0.0,2.0,53,0.00,,,0.00,meteohub,2013-07-14 05:26:00,
2013-07-13 22:31:00,59.4,42.8,30.24,East,90,2.0,2.0,54,0.00,,,0.00,meteohub,2013-07-14 05:31:00,
2013-07-13 22:36:00,59.0,42.4,30.24,East,90,2.0,2.0,54,0.00,,,0.00,meteohub,2013-07-14 05:36:00,
2013-07-13 22:41:00,59.0,42.4,30.24,East,90,2.0,2.0,54,0.00,,,0.00,meteohub,2013-07-14 05:41:00,
2013-07-13 22:46:00,58.8,42.3,30.24,East,90,1.0,2.0,54,0.00,,,0.00,meteohub,2013-07-14 05:46:00,
2013-07-13 22:51:00,58.5,41.9,30.24,East,90,2.0,2.0,54,0.00,,,0.00,meteohub,2013-07-14 05:51:00,
2013-07-13 22:56:00,58.3,41.7,30.24,East,90,1.0,2.0,54,0.00,,,0.00,meteohub,2013-07-14 05:56:00,
2013-07-13 23:01:00,57.9,41.4,30.24,East,90,1.0,2.0,54,0.00,,,0.00,meteohub,2013-07-14 06:01:00,
2013-07-13 23:06:00,57.7,41.2,30.24,East,90,2.0,2.0,54,0.00,,,0.00,meteohub,2013-07-14 06:06:00,
2013-07-13 23:11:00,57.2,40.6,30.24,East,90,2.0,2.0,54,0.00,,,0.00,meteohub,2013-07-14 06:11:00,
2013-07-13 23:16:00,56.8,40.5,30.24,East,90,0.0,2.0,54,0.00,,,0.00,meteohub,2013-07-14 06:16:00,
2013-07-13 23:21:00,56.8,40.5,30.24,East,90,1.0,2.0,54,0.00,,,0.00,meteohub,2013-07-14 06:21:00,
2013-07-13 23:26:00,56.8,40.5,30.24,East,90,1.0,2.0,54,0.00,,,0.00,meteohub,2013-07-14 06:26:00,
2013-07-13 23:31:00,56.7,40.3,30.24,East,90,1.0,2.0,54,0.00,,,0.00,meteohub,2013-07-14 06:31:00,
2013-07-13 23:36:00,56.7,39.7,30.24,East,90,0.0,2.0,53,0.00,,,0.00,meteohub,2013-07-14 06:36:00,
2013-07-13 23:41:00,56.5,39.6,30.24,East,90,0.0,2.0,53,0.00,,,0.00,meteohub,2013-07-14 06:41:00,
2013-07-13 23:46:00,56.3,39.4,30.25,East,90,2.0,2.0,53,0.00,,,0.00,meteohub,2013-07-14 06:46:00,
2013-07-13 23:51:00,56.1,38.7,30.24,East,90,1.0,2.0,52,0.00,,,0.00,meteohub,2013-07-14 06:51:00,
2013-07-13 23:56:00,55.8,38.8,30.24,East,90,2.0,2.0,53,0.00,,,0.00,meteohub,2013-07-14 06:56:00,